Cherry Point, NC

5:09 AM EST on November 23, 2017 (GMT -0500)
Cherry Point Marine Corps Air Station

Weather History for KNKT - August, 2013

Change the Weather History Date:

Sunday, August 25, 2013

  Actual Average Record
Temperature  
Mean Temperature 74 °F -  
Max Temperature 82 °F 84 °F 93 °F (2002)
Min Temperature 66 °F 68 °F 33 °F (1996)
Cooling Degree Days 10    
Growing Degree Days 24 (Base 50)    
Moisture  
Dew Point 61 °F    
Average Humidity 66    
Maximum Humidity 81    
Minimum Humidity 50    
Precipitation  
Precipitation 0.00 in - - ()
Sea Level Pressure  
Sea Level Pressure 30.28 in    
Wind  
Wind Speed 13 mph (NE)    
Max Wind Speed 20 mph    
Max Gust Speed 23 mph    
Visibility 10 miles    
Events      
Averages and records for this station are not official NWS values.
T = Trace of Precipitation, MM = Missing Value Source: NWS Daily Summary

Daily Weather History Graph

Daily Weather History Graph

Search for Another Location

Airport or City:

Trip Planner

Search our weather history database for the weather conditions in past years. The results will help you decide how hot, cold, wet, or windy it might be!

Date:

Astronomy

Aug. 25, 2013 Rise Set
Actual Time 6:35 AM EDT 7:43 PM EDT
Civil Twilight 6:09 AM EDT 8:09 PM EDT
Nautical Twilight 5:38 AM EDT 8:40 PM EDT
Astronomical Twilight 5:05 AM EDT 9:12 PM EDT
Moon 10:27 PM EDT (8/25) 11:20 AM EDT (8/25)
Length of Visible Light 14h 00m
Length of Day
13h 07m
Waning Gibbous, 76% of the Moon is Illuminated
Aug 25
Waning Gibbous
Aug 28
Last Quarter
Sep 5
New
Sep 12
First Quarter
Sep 19
Full

Hourly Weather History & Observations

Time (EDT) Temp. Heat Index Dew Point Humidity Pressure Visibility Wind Dir Wind Speed Gust Speed Precip Events Conditions
12:54 AM 70.0 °F - 62.1 °F 76% 30.26 in 10.0 mi NNE 12.7 mph - N/A   Clear
1:54 AM 69.1 °F - 62.1 °F 78% 30.25 in 10.0 mi NNE 13.8 mph - N/A   Clear
2:54 AM 69.1 °F - 61.0 °F 75% 30.25 in 10.0 mi NNE 13.8 mph - N/A   Clear
3:54 AM 69.1 °F - 61.0 °F 75% 30.25 in 10.0 mi NNE 12.7 mph - N/A   Partly Cloudy
4:54 AM 69.1 °F - 60.1 °F 73% 30.24 in 10.0 mi NNE 11.5 mph - N/A   Partly Cloudy
5:54 AM 68.0 °F - 60.1 °F 76% 30.25 in 10.0 mi NNE 11.5 mph - N/A   Scattered Clouds
6:54 AM 68.0 °F - 60.1 °F 76% 30.27 in 10.0 mi NNE 10.4 mph - N/A   Partly Cloudy
7:54 AM 70.0 °F - 60.1 °F 71% 30.29 in 10.0 mi NNE 11.5 mph - N/A   Partly Cloudy
8:54 AM 72.0 °F - 60.1 °F 66% 30.32 in 10.0 mi NNE 15.0 mph - N/A   Partly Cloudy
9:54 AM 75.0 °F - 59.0 °F 57% 30.33 in 10.0 mi NE 17.3 mph - N/A   Partly Cloudy
10:54 AM 78.1 °F - 59.0 °F 52% 30.34 in 10.0 mi NE 19.6 mph - N/A   Partly Cloudy
11:54 AM 80.1 °F 80.9 °F 60.1 °F 50% 30.33 in 10.0 mi NE 13.8 mph - N/A   Scattered Clouds
12:54 PM 80.1 °F 80.9 °F 60.1 °F 50% 30.31 in 10.0 mi ENE 11.5 mph - N/A   Mostly Cloudy
1:54 PM 81.0 °F 81.7 °F 61.0 °F 50% 30.30 in 10.0 mi ENE 13.8 mph - N/A   Mostly Cloudy
2:54 PM 79.0 °F - 62.1 °F 56% 30.28 in 10.0 mi ENE 16.1 mph - N/A   Mostly Cloudy
3:54 PM 80.1 °F 81.2 °F 62.1 °F 54% 30.27 in 10.0 mi ENE 16.1 mph 23.0 mph N/A   Mostly Cloudy
4:54 PM 78.1 °F - 64.0 °F 62% 30.26 in 10.0 mi ENE 15.0 mph 21.9 mph N/A   Mostly Cloudy
5:54 PM 78.1 °F - 64.0 °F 62% 30.28 in 10.0 mi ENE 18.4 mph 23.0 mph N/A   Scattered Clouds
6:54 PM 75.0 °F - 64.0 °F 69% 30.28 in 10.0 mi ENE 9.2 mph - N/A   Scattered Clouds
7:54 PM 73.9 °F - 61.0 °F 64% 30.28 in 10.0 mi NE 10.4 mph - N/A   Scattered Clouds
8:54 PM 71.1 °F - 62.1 °F 73% 30.28 in 10.0 mi NE 9.2 mph - N/A   Scattered Clouds
9:54 PM 70.0 °F - 61.0 °F 73% 30.28 in 10.0 mi NE 9.2 mph - N/A   Scattered Clouds
10:54 PM 69.1 °F - 61.0 °F 75% 30.29 in 10.0 mi NE 10.4 mph - N/A   Scattered Clouds
11:54 PM 66.9 °F - 61.0 °F 81% 30.29 in 10.0 mi NE 6.9 mph - N/A   Clear